This demonstration page uses our WeatherBlox Daily Observations layout. Learn more.

Left ArrowRight Arrow

Hourly Observations for February 24, 2019

Temp ( °F °C ) Dew Point ( °F °C ) Humidity (%) Winds ( mph kmh ) Pressure ( in mb ) Visibility ( mi km ) Precip ( " mm )
12:53 am 00:53 Cloudy with Mist and Fog 48 8.9 48 8.9 100 100 Calm 29.95 1014 4 6 0.00 0.03
1:53 am 01:53 Cloudy with Light Rain 50 10 50 10 100 100 ESE 3 6 29.91 1013 6 10 0.02 0.51
2:53 am 02:53 Cloudy with Light Rain 51 10.6 51 10.6 100 100 Calm 29.88 1012 9 14 0.01 0.25
3:53 am 03:53 Cloudy with Rain 52 11.1 52 11.1 100 100 SSE 5 7 29.85 1011 5 8 0.10 2.54
4:48 am 04:48 Cloudy with Light Rain 55 13 55 13 100 100 S 5 7 29.87 1012 9 14 0.10 2.54
4:53 am 04:53 Cloudy with Light Rain 56 13.3 56 13.3 100 100 Calm 29.86 1011 7 11 0.11 2.79
5:17 am 05:17 Cloudy 56 13.3 56 13.3 100 100 S 5 7 29.86 1011 10 16 0.02 0.51
5:53 am 05:53 Cloudy 55 12.8 55 12.8 100 100 SW 3 6 29.87 1012 10 16 0.02 0.51
6:12 am 06:12 Cloudy 56 13.3 56 13.3 100 100 NNW 5 7 29.90 1013 10 16 0.00 0.00
6:44 am 06:44 Cloudy 56 13.3 56 13.3 100 100 SSE 5 7 29.90 1013 10 16 0.00 0.00
6:53 am 06:53 Cloudy 57 13.9 57 13.9 100 100 SSW 5 7 29.89 1012 10 16 0.00 0.00
7:53 am 07:53 Partly Cloudy 56 13.3 52 11.1 87 87 SW 6 9 29.91 1013 10 16 0.00 0.00
8:53 am 08:53 Sunny 58 14.4 50 10 75 75 WSW 7 11 29.93 1014 10 16 0.00 0.00
9:53 am 09:53 Sunny 60 15.6 45 7.2 58 58 W 9 15 29.95 1014 10 16 0.00 0.00
10:53 am 10:53 Sunny 62 16.7 45 7.2 54 54 WNW 14 22 29.97 1015 10 16 0.00 0.00
11:53 am 11:53 Sunny 63 17.2 42 5.6 47 47 W 20 31 30.01 1016 10 16 0.00 0.00
12:53 pm 12:53 Sunny 62 16.7 40 4.4 44 44 WNW 25 41 30.03 1017 10 16 0.00 0.00
1:53 pm 13:53 Sunny 62 16.7 38 3.3 41 41 W 16 26 30.03 1017 10 16 0.00 0.00
2:53 pm 14:53 Sunny 62 16.7 38 3.3 41 41 WNW 21 33 30.05 1018 10 16 0.00 0.00
3:53 pm 15:53 Sunny 61 16.1 28 -2.2 29 29 NW 17 28 30.06 1018 10 16 0.00 0.00
4:53 pm 16:53 Sunny 59 15 28 -2.2 31 31 NW 14 22 30.09 1019 10 16 0.00 0.00
5:53 pm 17:53 Sunny 57 13.9 28 -2.2 33 33 WNW 14 22 30.11 1020 10 16 0.00 0.00
6:53 pm 18:53 Clear 55 12.8 28 -2.2 35 35 WNW 10 17 30.14 1021 10 16 0.00 0.00
7:53 pm 19:53 Clear 52 11.1 27 -2.8 38 38 NW 10 17 30.17 1022 10 16 0.00 0.00
8:53 pm 20:53 Clear 51 10.6 24 -4.4 35 35 WNW 9 15 30.19 1023 10 16 0.00 0.00
9:53 pm 21:53 Clear 48 8.9 25 -3.9 41 41 WNW 6 9 30.23 1024 10 16 0.00 0.00
10:53 pm 22:53 Clear 47 8.3 23 -5 39 39 NW 8 13 30.24 1024 10 16 0.00 0.00
11:53 pm 23:53 Clear 47 8.3 22 -5.6 37 37 NNW 8 13 30.25 1024 10 16 0.00 0.00

Powered by AerisWeather